Weather History for Rogers, AR

Change the Weather History Date:

Friday, November 23, 2012

  Actual Average Record
Temperature  
Mean Temperature 42 °F -  
Max Temperature 55 °F 53 °F 71 °F (2005)
Min Temperature 30 °F 36 °F 17 °F (2007)
Degree Days  
Heating Degree Days 22    
Moisture  
Dew Point 24 °F    
Average Humidity 53    
Maximum Humidity 70    
Minimum Humidity 38    
Precipitation  
Precipitation 0.00 in - - ()
Sea Level Pressure  
Sea Level Pressure 30.40 in    
Wind  
Wind Speed 10 mph (NW)    
Max Wind Speed 18 mph    
Max Gust Speed 28 mph    
Visibility 10 miles    
Events      
Averages and records for this station are not official NWS values.
T = Trace of Precipitation, MM = Missing Value Source: NWS Daily Summary

Daily Weather History Graph

Daily Weather History Graph

Search for Another Location

Airport:

Trip Planner

Search our weather history database for the weather conditions in past years. The results will help you decide how hot, cold, wet, or windy it might be!

Date:

Astronomy

Nov. 23, 2012 Rise Set
Actual Time 7:02 AM CST 5:03 PM CST
Civil Twilight 6:34 AM CST 5:31 PM CST
Nautical Twilight 6:02 AM CST 6:02 PM CST
Astronomical Twilight 5:31 AM CST 6:33 PM CST
Moon 2:12 PM CST 2:28 AM CST
Length of Visible Light 10h 57m
Length of Day
10h 01m
Waxing Gibbous, 80% of the Moon is Illuminated
Nov 23
Waxing Gibbous
Nov 28
Full
Dec 6
Last Quarter
Dec 13
New
Dec 19
First Quarter

Hourly Weather History & Observations

Time (CST) Temp. Windchill Dew Point Humidity Pressure Visibility Wind Dir Wind Speed Gust Speed Precip Events Conditions
12:57 AM 55.0 °F - 30.0 °F 38% 30.21 in 10.0 mi North 15.0 mph 24.2 mph 0.00 in   Overcast
3:57 AM 48.0 °F - 30.9 °F 52% 30.30 in 10.0 mi North 8.1 mph - N/A   Scattered Clouds
4:57 AM 45.0 °F 41.2 °F 30.9 °F 58% 30.33 in 10.0 mi North 6.9 mph - N/A   Clear
5:57 AM 43.0 °F 41.3 °F 32.0 °F 65% 30.34 in 10.0 mi NNW 3.5 mph - N/A   Clear
6:57 AM 41.0 °F 38.0 °F 30.9 °F 67% 30.38 in 10.0 mi WNW 4.6 mph - N/A   Clear
7:57 AM 42.1 °F 37.7 °F 33.1 °F 70% 30.39 in 10.0 mi WNW 6.9 mph - N/A   Clear
8:57 AM 44.1 °F 37.1 °F 32.0 °F 63% 30.40 in 10.0 mi NW 15.0 mph 21.9 mph N/A   Clear
9:57 AM 44.1 °F 36.8 °F 23.0 °F 43% 30.43 in 10.0 mi NW 16.1 mph 25.3 mph N/A   Clear
10:57 AM 43.0 °F 34.8 °F 21.0 °F 42% 30.43 in 10.0 mi NW 18.4 mph 27.6 mph N/A   Clear
11:57 AM 43.0 °F 35.7 °F 19.9 °F 40% 30.43 in 10.0 mi NW 15.0 mph 26.5 mph N/A   Clear
12:57 PM 43.0 °F 36.0 °F 19.0 °F 38% 30.42 in 10.0 mi NNW 13.8 mph - N/A   Clear
1:57 PM 43.0 °F 35.7 °F 19.9 °F 40% 30.41 in 10.0 mi NW 15.0 mph - N/A   Clear
2:57 PM 43.0 °F 36.4 °F 21.0 °F 42% 30.42 in 10.0 mi NW 12.7 mph 18.4 mph N/A   Clear
3:57 PM 42.1 °F 34.9 °F 19.9 °F 41% 30.42 in 10.0 mi NW 13.8 mph 19.6 mph N/A   Clear
4:57 PM 39.0 °F 32.3 °F 19.9 °F 46% 30.43 in 10.0 mi NW 10.4 mph - N/A   Clear
5:57 PM 36.0 °F 29.6 °F 19.9 °F 52% 30.44 in 10.0 mi NW 8.1 mph - N/A   Clear
6:57 PM 35.1 °F 30.1 °F 19.9 °F 54% 30.45 in 10.0 mi WNW 5.8 mph - N/A   Clear
7:57 PM 33.1 °F 28.7 °F 19.9 °F 59% 30.45 in 10.0 mi NW 4.6 mph - N/A   Clear
8:57 PM 30.9 °F 27.5 °F 21.0 °F 67% 30.45 in 10.0 mi WNW 3.5 mph - N/A   Clear
9:57 PM 30.9 °F 25.2 °F 21.0 °F 67% 30.45 in 10.0 mi NNW 5.8 mph - N/A   Clear
10:57 PM 30.9 °F 27.5 °F 19.0 °F 61% 30.45 in 10.0 mi NNW 3.5 mph - N/A   Clear
11:57 PM 30.0 °F 25.2 °F 19.0 °F 64% 30.44 in 10.0 mi NW 4.6 mph - N/A   Clear